Starlink 35896

operational
NORAD ID: 66824 Int'l Des: 2025-280 Owner: SPXS Country: US Constellation: starlink
LEOCIRCULAR

About Starlink 35896

Description loading...

Live Position

Loading 3D Globe...

Upcoming Passes

Altitude History

Altitude vs Time

uPlot chart will show altitude changes over time

Two-Line Element Set

1 66824U 25280D 26047.39298052 .00008913 00000-0 75357-3 0 9991
2 66824 70.0004 28.2426 0003879 282.9157 77.1569 14.98343193 12883
Epoch: Feb 16, 2026 • Age: 14 hours

Current Status

Altitude 576.0 km
Velocity 7.57 km/s
Sub-Earth Point -13.73°S, 122.12°W
Launch Date Dec 2, 2025
Age 0.2 years
Type internet

Technical Details

Classification Payload
Mass 575.00 kg
Dry Mass 530.00 kg
Total Mass 575.00 kg
Length 0.30 m
Diameter 4.10 m
Span 29.00 m
Shape Box + pan
Manufacturer SPXS
Bus Type Starlink V2MO
Phase Status In Orbit
Owner/State SPXS/US

Large Constellations

Loading constellations...